Date,TemperatureHighF,TemperatureAvgF,TemperatureLowF,DewpointHighF,DewpointAvgF,DewpointLowF,HumidityHigh,HumidityAvg,HumidityLow,PressureMaxIn,PressureMinIn,WindSpeedMaxMPH,WindSpeedAvgMPH,GustSpeedMaxMPH,PrecipitationSumIn
2013-2-1,34.2,26.7,18.9,21.1,13.0,6.1,66,56,40,30.06,29.50,17,10,29,0.00
2013-2-2,27.9,21.7,16.2,18.8,9.5,2.6,78,59,51,30.24,30.06,14,5,23,0.00
2013-2-3,28.2,25.9,23.4,20.3,18.5,16.2,83,73,66,30.08,29.73,15,3,22,0.00
2013-2-4,30.4,24.3,19.0,16.6,10.7,2.5,72,57,43,29.92,29.70,24,12,33,0.00
2013-2-5,32.2,19.2,14.9,11.1,3.4,-1.7,65,50,36,30.08,29.92,13,3,21,0.00
2013-2-6,42.1,27.1,20.3,29.6,16.0,2.1,78,64,41,30.26,29.92,20,6,28,0.00
2013-2-7,25.3,16.7,13.1,2.8,-0.9,-4.0,55,46,33,30.57,30.26,17,8,25,0.00
2013-2-8,22.8,17.5,14.2,20.1,11.5,-0.5,89,78,49,30.56,29.87,8,4,19,0.00
2013-2-9,20.3,16.7,13.1,17.6,13.8,10.0,90,88,79,30.08,29.64,30,17,47,0.00
2013-2-10,36.1,23.2,14.9,15.2,10.1,4.9,81,58,38,30.33,30.08,18,9,29,0.00
2013-2-11,39.4,30.4,20.1,37.6,26.4,13.2,94,85,70,30.33,29.57,9,2,14,0.51
2013-2-12,43.5,36.3,32.5,34.0,30.9,28.4,93,81,66,29.77,29.52,12,3,18,0.00
2013-2-13,44.1,35.3,32.2,28.9,26.8,24.9,80,71,54,29.81,29.60,9,3,15,0.00
2013-2-14,42.1,33.8,28.9,25.2,23.1,20.0,79,65,46,29.99,29.71,12,3,19,0.00
2013-2-15,46.6,36.4,28.2,37.0,31.7,23.3,91,83,69,29.99,29.90,6,2,16,0.00
2013-2-16,36.1,33.7,27.9,33.8,30.3,23.4,91,87,83,29.94,29.75,14,5,23,0.00
2013-2-17,27.9,24.0,20.5,23.4,16.8,8.8,91,74,60,29.75,29.15,36,22,48,0.00
2013-2-18,34.7,23.0,18.1,13.4,8.6,5.9,63,54,41,30.03,29.42,30,20,47,0.00
2013-2-19,41.0,31.3,21.6,39.2,19.6,6.8,94,63,47,30.12,29.62,6,2,17,0.41
2013-2-20,41.4,36.0,28.9,39.6,30.9,20.0,94,82,60,29.67,29.44,16,5,27,0.13
2013-2-21,32.5,27.5,23.5,25.8,17.7,12.1,77,67,56,30.12,29.67,20,11,35,0.00
2013-2-22,44.1,32.4,28.9,26.1,23.2,21.7,80,69,48,30.40,30.12,16,4,25,0.00
2013-2-23,37.4,33.1,28.9,31.2,28.0,22.3,89,81,72,30.37,30.05,5,1,12,0.00
2013-2-24,33.6,31.8,29.1,31.0,29.4,26.8,91,91,89,30.05,29.81,2,0,6,0.09
2013-2-25,46.6,31.8,27.9,32.7,27.2,24.5,91,83,56,30.26,29.93,8,2,13,0.09
2013-2-26,52.9,34.8,29.7,36.2,29.8,27.1,91,83,52,30.39,30.26,3,0,6,0.00
2013-2-27,37.2,33.6,30.9,32.8,30.6,27.8,94,89,80,30.30,29.71,5,1,17,0.06
2013-2-28,39.4,37.2,34.2,37.9,35.7,32.6,95,94,93,29.71,29.57,9,2,12,0.51